Regional Weather Roundup
Issued by NWS

Home | Current Version | Previous Version | Text Only | Print | Product List | Glossary On
Versions: 1 2 3 4 5 6 7 8 9 10 11 12 13 14 15 16 17 18 19 20 21 22 23 24 25 26 27 28 29 30 31 32 33 34 35 36 37 38 39 40 41 42 43 44 45 46 47 48 49 50
000
ASUS43 KOAX 220910
RWRNE

WEATHER ROUNDUP FOR NEBRASKA
NATIONAL WEATHER SERVICE OMAHA NE
400 AM CDT FRI AUG 22 2014

NOTES: SATELLITE DATA IS BEING USED TO AUGMENT CLOUD COVER ABOVE
       12000 FEET.
       "FAIR" INDICATES FEW OR NO CLOUDS BELOW 12,000 FEET WITH NO
       SIGNIFICANT WEATHER AND/OR OBSTRUCTIONS TO VISIBILITY.

  * THESE STATIONS DO NOT REPORT WEATHER SUCH AS RAIN...SNOW OR FOG.

NEZ001>004-019>022-054>056-221000-
NEBRASKA PANHANDLE

CITY           SKY/WX    TMP DP  RH WIND       PRES   REMARKS
SCOTTSBLUFF    CLOUDY    64  52  64 N8        30.05S
ALLIANCE       CLOUDY    64  52  64 CALM      30.03S
CHADRON        MOCLDY    60  50  69 CALM      30.02R
KIMBALL        CLOUDY    65  51  62 S5        30.11S
SIDNEY         CLOUDY    64  59  83 W10       30.10S
$$

NEZ057>060-069>072-079>082-221000-
SOUTHWEST NEBRASKA

CITY           SKY/WX    TMP DP  RH WIND       PRES   REMARKS
NORTH PLATTE   MOCLDY    63  61  93 CALM      29.97S
IMPERIAL       MOCLDY    70  64  81 NW6       30.00F
LEXINGTON      CLEAR     67  66  96 CALM      29.93F
MCCOOK         CLEAR     68  66  93 NW5       29.94F
OGALLALA       CLOUDY    66  63  91 CALM      30.01S
$$

NEZ005>010-023>029-035>040-094-221000-
NORTH CENTRAL NEBRASKA

CITY           SKY/WX    TMP DP  RH WIND       PRES   REMARKS
VALENTINE      CLEAR     66  61  84 CALM      29.96S
AINSWORTH      CLEAR     64  60  90 S5        29.96S
BROKEN BOW     CLEAR     67  64  90 VRB3      29.94F
O`NEILL        CLEAR     67  65  94 NE6       29.94R
ORD            CLEAR     68  66  93 CALM      29.92R
THEDFORD       PTCLDY    65  62  90 CALM      29.99R
$$

NEZ041-046>049-061>064-073>077-083>087-221000-
SOUTH CENTRAL NEBRASKA

CITY           SKY/WX    TMP DP  RH WIND       PRES   REMARKS
GRAND ISLAND   CLEAR     71  68  90 SE7       29.91R
AURORA         CLEAR     70  70 100 NE3       29.91R
HASTINGS       CLEAR     70  65  84 CALM      29.90R
HEBRON         PTCLDY    70  66  86 CALM      29.87R
HOLDREGE       CLEAR     67  65  93 CALM      29.90F
KEARNEY *      CLEAR     70  66  88 NW3       29.91F
YORK           PTCLDY    70 N/A N/A NE3       29.91R
$$

NEZ011>018-030>034-042>045-221000-
NORTHEAST NEBRASKA

CITY           SKY/WX    TMP DP  RH WIND       PRES   REMARKS
NORFOLK        PTCLDY    73  69  87 N7        29.90R
ALBION         CLEAR     70  67  92 CALM      29.92R FOG
BLAIR          CLOUDY    76  72  88 CALM      29.90R
FREMONT        CLOUDY    73  71  92 SE5       29.90R
TEKAMAH        CLOUDY    73  71  93 S5        29.88R
WAYNE          PTCLDY    69  68  97 CALM      29.91R
$$

NEZ050>053-065>068-078-088>093-221000-
SOUTHEAST NEBRASKA

CITY           SKY/WX    TMP DP  RH WIND       PRES   REMARKS
LINCOLN        CLOUDY    75  71  87 NE3       29.91R
OMAHA EPPLEY   CLOUDY    75  71  87 SE7       29.89R
BEATRICE       CLOUDY    74  72  93 E5        29.90R
FALLS CITY     CLOUDY    81  72  74 S3        29.90R
NEBRASKA CITY  CLOUDY    76  76 100 NE3       29.90R
PLATTSMOUTH    CLOUDY    74  72  91 SE3       29.90R
$$

NEZ044-045-051>053-067-221000-
OMAHA AREA

CITY           SKY/WX    TMP DP  RH WIND       PRES   REMARKS
OMAHA EPPLEY   CLOUDY    75  71  87 SE7       29.89R
BLAIR          CLOUDY    76  72  88 CALM      29.90R
FREMONT        CLOUDY    73  71  92 SE5       29.90R
MILLARD        CLOUDY    76  74  93 CALM      29.89R
OFFUTT AFB     CLOUDY    73  73 100 E2        29.89R
PLATTSMOUTH    CLOUDY    74  72  91 SE3       29.90R
WAHOO          FAIR      72  69  89 CALM      29.90R
$$



USA.gov is the U.S. government's official web portal to all federal, state and local government web resources and services.